period_start,C,m1,H,J0,J1,J2,J3,J4,J5,JA,JB,JC,JD,JJ,JK,JN,#
2014-08-27 00:01:36,0.00,0.17,0.00,25.17,29.79,32.05,9.48,38.93,1016.18,2027.99,3365.99,3269.00,3539.03,500.15,492.99,8.28,0000 0000 0000 0000 000000
2014-08-27 00:06:37,0.00,0.17,0.00,25.17,29.77,32.04,9.54,38.64,1016.20,2027.99,3365.99,3269.01,3539.05,500.34,493.28,8.32,0000 0000 0000 0000 000000
2014-08-27 00:11:38,0.00,0.17,0.00,25.18,29.77,32.03,9.51,38.74,1016.21,2027.99,3365.99,3269.00,3539.01,500.39,493.24,8.37,0000 0000 0000 0000 000000
2014-08-27 00:16:39,0.00,0.17,0.00,25.14,29.76,32.02,9.51,38.93,1016.24,2027.99,3366.00,3269.01,3539.03,500.07,492.99,8.41,0000 0000 0000 0000 000000
2014-08-27 00:21:40,0.00,0.17,0.00,25.14,29.75,32.01,9.52,38.73,1016.36,2028.00,3366.00,3269.03,3539.06,500.12,493.29,8.45,0000 0000 0000 0000 000000
2014-08-27 00:26:41,0.00,0.17,0.00,25.14,29.74,32.00,9.56,38.71,1016.43,2028.00,3366.00,3269.01,3539.02,500.54,493.65,8.49,0000 0000 0000 0000 000000
2014-08-27 00:31:42,0.00,0.17,0.00,25.14,29.72,31.99,9.43,38.75,1016.48,2028.00,3365.99,3269.00,3539.00,499.79,492.97,8.53,0000 0000 0000 0000 000000
2014-08-27 00:36:43,0.00,0.17,0.00,25.12,29.72,31.99,9.60,38.70,1016.26,2028.02,3365.94,3269.00,3539.00,500.19,493.26,8.58,0000 0000 0000 0000 000000
2014-08-27 00:41:44,0.00,0.17,0.00,25.12,29.70,31.97,9.57,38.70,1016.47,2028.02,3365.79,3268.99,3539.00,500.37,493.55,8.62,0000 0000 0000 0000 000000
2014-08-27 00:46:45,0.02,0.17,0.00,25.12,29.70,31.97,9.54,38.71,1016.46,2028.03,3365.26,3268.93,3538.86,499.76,492.78,8.66,0000 0000 0000 0000 000000
2014-08-27 00:51:46,0.03,0.17,0.00,25.12,29.69,31.96,9.48,38.75,1016.59,2028.06,3365.00,3268.34,3538.14,500.09,493.06,8.70,0000 0000 0000 0000 000000
2014-08-27 00:56:47,0.04,0.17,0.00,25.13,29.67,31.94,9.48,38.71,1016.62,2028.15,3364.62,3268.12,3538.04,499.36,492.45,8.74,0000 0000 0000 0000 000000
2014-08-27 01:01:48,0.07,0.17,0.00,25.13,29.67,31.93,9.54,38.80,1016.62,2028.38,3363.58,3267.70,3537.58,500.01,493.16,8.78,0000 0000 0000 0000 000000
2014-08-27 01:06:49,0.12,0.18,0.00,25.11,29.66,31.92,9.52,38.83,1016.62,2028.56,3361.50,3266.45,3536.22,500.16,493.39,8.83,0000 0000 0000 0000 000000
2014-08-27 01:11:50,0.14,0.18,0.00,25.09,29.65,31.92,9.49,38.58,1016.62,2028.63,3358.78,3264.74,3534.38,500.14,493.34,8.87,0000 0000 0000 0000 000000
2014-08-27 01:16:51,0.16,0.19,0.00,25.07,29.65,31.91,9.50,38.55,1016.62,2028.64,3355.49,3262.83,3532.23,500.78,493.87,8.91,0000 0000 0000 0000 000000
2014-08-27 01:21:53,0.21,0.20,0.00,25.07,29.64,31.90,9.52,38.73,1016.62,2028.72,3351.66,3260.65,3529.82,500.53,493.71,8.95,0000 0000 0000 0000 000000
2014-08-27 01:26:54,0.24,0.21,0.00,25.06,29.63,31.89,9.58,38.91,1016.62,2028.77,3346.55,3257.51,3526.56,500.51,493.61,8.99,0000 0000 0000 0000 000000
2014-08-27 01:31:55,0.08,0.21,0.00,25.08,29.62,31.89,9.55,38.84,1016.62,2028.89,3344.40,3256.10,3525.11,500.10,493.37,9.04,0000 0000 0000 0000 000000
2014-08-27 01:36:56,0.03,0.22,0.00,25.07,29.62,31.88,9.50,38.73,1016.63,2028.91,3343.54,3255.82,3524.61,500.00,493.15,9.08,0000 0000 0000 0000 000000
2014-08-27 01:41:57,0.05,0.22,0.00,25.05,29.61,31.88,9.46,38.85,1016.63,2028.95,3342.47,3255.07,3524.02,499.56,492.79,9.12,0000 0000 0000 0000 000000
2014-08-27 01:46:58,0.03,0.22,0.00,25.08,29.60,31.88,9.54,38.89,1016.62,2028.94,3341.61,3254.81,3523.56,500.29,493.56,9.16,0000 0000 0000 0000 000000
2014-08-27 01:52:00,0.03,0.22,0.00,25.06,29.60,31.86,9.50,38.88,1016.62,2028.96,3340.98,3254.16,3523.03,499.69,492.97,9.20,0000 0000 0000 0000 000000
2014-08-27 01:57:01,0.02,0.22,0.00,25.04,29.60,31.85,9.48,38.76,1016.62,2028.98,3340.19,3254.00,3522.98,499.81,492.98,9.24,0000 0000 0000 0000 000000
2014-08-27 02:02:02,0.01,0.22,0.00,25.04,29.59,31.85,9.51,38.79,1016.63,2028.98,3339.80,3253.96,3522.46,500.59,493.81,9.29,0000 0000 0000 0000 000000
2014-08-27 04:16:12,-3333.30,0.00,0.00,22.02,26.49,23.75,8.17,35.37,1015.48,1839.76,3137.80,3006.72,3273.22,435.00,433.14,0.00,0000 0000 0000 0000 000000
2014-08-27 04:21:13,0.00,0.00,0.00,22.06,26.27,25.10,9.48,39.81,1015.67,2042.04,3478.97,3336.11,3632.22,499.83,497.69,0.04,0000 0000 0000 0000 000000
2014-08-27 04:26:14,0.00,0.00,0.00,22.23,26.09,25.87,9.50,39.72,1015.85,2042.12,3478.35,3336.02,3631.99,500.00,497.59,0.09,0000 0000 0000 0000 000000
2014-08-27 04:31:15,0.01,0.00,0.00,22.44,25.95,26.56,9.47,39.49,1016.10,2042.90,3478.92,3336.71,3632.03,500.02,497.45,0.13,0000 0000 0000 0000 000000
2014-08-27 04:36:16,0.00,0.00,0.00,22.60,25.86,27.13,9.53,39.32,1016.13,2043.05,3478.99,3336.99,3632.60,499.71,496.83,0.17,0000 0000 0000 0000 000000
2014-08-27 04:41:17,0.05,0.00,0.00,22.76,25.81,27.36,9.48,39.38,1016.24,2043.86,3479.11,3337.42,3632.98,499.70,496.42,0.21,0000 0000 0000 0000 000000
2014-08-27 04:46:18,-0.00,0.00,0.00,22.93,25.80,27.60,9.51,39.30,1016.58,2043.99,3479.61,3337.94,3632.99,500.19,497.07,0.25,0000 0000 0000 0000 000000
2014-08-27 04:51:19,0.00,0.00,0.00,23.16,25.83,27.90,9.51,39.17,1016.62,2043.99,3479.62,3337.97,3632.96,500.02,496.42,0.30,0000 0000 0000 0000 000000
2014-08-27 04:56:20,0.03,0.00,0.00,23.86,25.90,28.23,9.48,39.03,1016.62,2044.00,3479.22,3337.64,3632.37,499.96,495.26,0.34,0000 0000 0000 0000 000000
2014-08-27 05:01:21,0.01,0.01,0.00,24.13,25.99,28.50,9.47,38.93,1016.63,2044.00,3479.00,3337.04,3631.98,500.12,495.06,0.38,0000 0000 0000 0000 000000
2014-08-27 05:06:23,0.03,0.01,0.00,24.00,26.09,28.72,9.50,38.85,1016.65,2044.00,3478.44,3336.86,3631.20,499.93,494.91,0.42,0000 0000 0000 0000 000000
2014-08-27 05:11:24,0.03,0.01,0.00,23.88,26.21,28.86,9.48,38.82,1016.71,2043.88,3477.81,3336.07,3630.43,500.27,495.63,0.46,0000 0000 0000 0000 000000
2014-08-27 05:16:25,-0.03,0.01,0.00,23.86,26.32,29.01,9.53,38.74,1016.87,2043.21,3477.00,3335.37,3629.45,500.27,495.46,0.50,0000 0000 0000 0000 000000
2014-08-27 05:21:26,0.04,0.01,0.00,23.88,26.44,29.14,9.49,38.73,1017.03,2043.00,3476.19,3334.69,3628.54,499.86,495.22,0.55,0000 0000 0000 0000 000000
2014-08-27 05:26:27,0.03,0.01,0.00,23.91,26.56,29.26,9.47,38.66,1017.02,2042.97,3475.56,3334.00,3627.79,499.87,495.25,0.59,0000 0000 0000 0000 000000
2014-08-27 05:31:28,-0.04,0.01,0.00,23.93,26.66,29.37,9.46,38.72,1016.92,2042.26,3474.74,3333.20,3626.77,499.64,495.00,0.63,0000 0000 0000 0000 000000
2014-08-27 05:36:29,0.04,0.01,0.00,23.94,26.77,29.45,9.48,38.67,1016.86,2042.00,3473.91,3332.50,3625.79,499.86,495.14,0.67,0000 0000 0000 0000 000000
2014-08-27 05:41:30,-0.01,0.01,0.00,23.98,26.88,29.52,9.51,38.52,1016.73,2041.72,3473.05,3331.66,3624.88,500.18,495.25,0.71,0000 0000 0000 0000 000000
2014-08-27 05:46:32,-0.01,0.01,0.00,24.01,26.97,29.61,9.46,38.79,1016.83,2041.04,3472.21,3330.90,3623.94,499.87,494.96,0.76,0000 0000 0000 0000 000000
2014-08-27 05:51:33,0.05,0.01,0.00,24.03,27.07,29.68,9.44,38.50,1016.98,2040.98,3471.47,3330.08,3623.00,499.60,494.75,0.80,0000 0000 0000 0000 000000
2014-08-27 05:56:34,-0.01,0.01,0.00,24.03,27.16,29.76,9.47,38.58,1016.90,2040.51,3470.39,3329.21,3622.01,499.88,494.97,0.84,0000 0000 0000 0000 000000
2014-08-27 06:01:35,0.08,0.01,0.00,24.08,27.24,29.82,9.48,38.37,1016.96,2040.02,3468.91,3327.97,3620.47,500.45,495.45,0.88,0000 0000 0000 0000 000000
2014-08-27 06:06:37,0.07,0.02,0.00,24.11,27.33,29.88,9.49,38.53,1017.08,2039.99,3467.12,3326.60,3618.95,500.02,495.05,0.92,0000 0000 0000 0000 000000
2014-08-27 06:11:38,-0.03,0.02,0.00,24.11,27.40,29.94,9.49,38.45,1017.09,2039.50,3466.43,3326.01,3618.06,499.98,495.04,0.96,0000 0000 0000 0000 000000
2014-08-27 06:16:39,0.00,0.02,0.00,24.13,27.48,29.99,9.47,38.47,1017.10,2039.04,3465.96,3325.29,3617.29,500.07,495.18,1.01,0000 0000 0000 0000 000000
2014-08-27 06:21:40,0.04,0.02,0.00,24.15,27.55,30.05,9.50,38.46,1017.10,2038.99,3465.16,3324.79,3616.58,499.68,494.69,1.05,0000 0000 0000 0000 000000
2014-08-27 06:26:42,-0.00,0.02,0.00,24.19,27.61,30.11,9.56,38.48,1017.10,2038.73,3464.37,3324.04,3615.86,499.96,494.97,1.09,0000 0000 0000 0000 000000
2014-08-27 06:31:43,-0.01,0.02,0.00,24.20,27.68,30.15,9.49,38.53,1017.10,2038.12,3463.75,3323.56,3615.09,499.98,494.94,1.13,0000 0000 0000 0000 000000
2014-08-27 06:36:44,0.02,0.02,0.00,24.19,27.73,30.20,9.46,38.48,1017.10,2038.00,3463.02,3322.97,3614.29,499.43,494.44,1.17,0000 0000 0000 0000 000000
2014-08-27 06:41:45,0.04,0.02,0.00,24.21,27.79,30.24,9.50,38.42,1017.10,2037.99,3462.63,3322.27,3613.80,500.08,495.26,1.22,0000 0000 0000 0000 000000
2014-08-27 06:46:46,-0.01,0.02,0.00,24.20,27.84,30.28,9.39,38.29,1017.10,2037.79,3461.98,3321.95,3613.02,499.95,494.77,1.26,0000 0000 0000 0000 000000
2014-08-27 06:51:47,-0.01,0.02,0.00,24.21,27.89,30.32,9.47,38.30,1017.09,2037.17,3461.41,3321.25,3612.41,499.61,494.77,1.30,0000 0000 0000 0000 000000
2014-08-27 06:56:48,0.00,0.02,0.00,24.21,27.93,30.36,9.54,38.48,1017.06,2037.00,3460.95,3320.96,3611.89,500.06,494.95,1.34,0000 0000 0000 0000 000000
2014-08-27 07:01:50,0.05,0.02,0.00,24.23,27.98,30.38,9.44,38.22,1017.10,2037.00,3460.32,3320.31,3611.11,499.44,494.41,1.38,0000 0000 0000 0000 000000
2014-08-27 07:06:51,0.00,0.02,0.00,24.26,28.02,30.43,9.50,38.34,1017.04,2036.98,3460.00,3320.01,3610.91,500.44,495.10,1.42,0000 0000 0000 0000 000000
2014-08-27 07:11:52,0.01,0.02,0.00,24.26,28.06,30.45,9.51,38.34,1016.78,2036.84,3459.63,3319.80,3610.16,499.78,494.47,1.47,0000 0000 0000 0000 000000
2014-08-27 07:16:53,-0.03,0.02,0.00,24.27,28.09,30.48,9.50,38.15,1016.68,2036.33,3459.03,3319.06,3609.99,499.54,494.29,1.51,0000 0000 0000 0000 000000
2014-08-27 07:21:54,-0.01,0.02,0.00,24.28,28.13,30.51,9.50,38.21,1016.81,2036.07,3458.91,3318.99,3609.39,500.08,494.67,1.55,0000 0000 0000 0000 000000
2014-08-27 07:26:55,0.04,0.02,0.00,24.28,28.16,30.53,9.49,38.27,1016.77,2036.00,3458.13,3318.46,3608.93,499.48,494.09,1.59,0000 0000 0000 0000 000000
2014-08-27 07:31:56,0.02,0.03,0.00,24.29,28.19,30.56,9.54,38.13,1016.78,2036.00,3458.00,3318.01,3608.16,500.20,494.96,1.63,0000 0000 0000 0000 000000
2014-08-27 07:36:57,0.01,0.03,0.00,24.30,28.21,30.59,9.45,38.20,1016.73,2035.99,3457.41,3317.97,3607.99,499.39,494.16,1.68,0000 0000 0000 0000 000000
2014-08-27 07:41:58,0.03,0.03,0.00,24.31,28.24,30.61,9.50,38.17,1016.89,2035.94,3457.02,3317.46,3607.64,499.86,494.54,1.72,0000 0000 0000 0000 000000
2014-08-27 07:46:59,-0.02,0.03,0.00,24.33,28.27,30.63,9.59,38.13,1016.98,2035.71,3456.99,3317.02,3607.04,500.38,495.12,1.76,0000 0000 0000 0000 000000
2014-08-27 07:52:00,-0.04,0.03,0.00,24.34,28.30,30.65,9.46,37.88,1016.96,2035.23,3456.53,3317.00,3606.98,500.02,494.88,1.80,0000 0000 0000 0000 000000
2014-08-27 07:57:01,0.00,0.03,0.00,24.35,28.32,30.68,9.54,38.07,1016.83,2035.13,3456.08,3316.97,3606.71,500.20,494.65,1.84,0000 0000 0000 0000 000000
2014-08-27 08:02:02,0.02,0.03,0.00,24.35,28.35,30.70,9.52,38.32,1016.79,2035.02,3456.01,3316.43,3606.05,499.97,494.31,1.88,0000 0000 0000 0000 000000
2014-08-27 08:07:03,0.00,0.03,0.00,24.37,28.37,30.72,9.51,38.11,1016.86,2035.00,3455.98,3316.01,3605.99,499.65,494.20,1.93,0000 0000 0000 0000 000000
2014-08-27 08:12:04,0.01,0.03,0.00,24.35,28.39,30.74,9.51,38.30,1016.91,2035.00,3455.64,3316.00,3605.70,499.60,494.26,1.97,0000 0000 0000 0000 000000
2014-08-27 08:17:05,0.01,0.03,0.00,24.36,28.41,30.76,9.47,38.16,1016.73,2035.00,3455.07,3315.97,3605.09,499.63,494.09,2.01,0000 0000 0000 0000 000000
2014-08-27 08:22:06,0.01,0.03,0.00,24.36,28.43,30.78,9.49,38.30,1016.79,2034.99,3455.01,3315.57,3605.00,500.08,494.51,2.05,0000 0000 0000 0000 000000
2014-08-27 08:27:07,0.01,0.03,0.00,24.35,28.45,30.79,9.44,38.00,1016.70,2034.98,3454.99,3315.08,3604.94,500.01,494.46,2.09,0000 0000 0000 0000 000000
2014-08-27 08:32:08,0.00,0.03,0.00,24.36,28.47,30.80,9.55,38.25,1016.87,2034.84,3454.76,3315.00,3604.26,500.10,494.70,2.14,0000 0000 0000 0000 000000
2014-08-27 08:37:09,-0.00,0.03,0.00,24.36,28.48,30.82,9.58,38.30,1016.88,2034.75,3454.33,3314.99,3604.02,499.92,494.46,2.18,0000 0000 0000 0000 000000
2014-08-27 08:42:10,-0.00,0.03,0.00,24.37,28.50,30.84,9.54,38.24,1016.73,2034.63,3454.03,3314.97,3604.00,499.87,494.36,2.22,0000 0000 0000 0000 000000
2014-08-27 08:47:12,-0.04,0.03,0.00,24.38,28.51,30.85,9.47,38.32,1016.66,2034.21,3454.00,3314.62,3603.93,500.04,494.41,2.26,0000 0000 0000 0000 000000
2014-08-27 08:52:12,0.01,0.03,0.00,24.38,28.52,30.86,9.52,38.45,1016.64,2034.05,3454.00,3314.14,3603.68,499.51,494.09,2.30,0000 0000 0000 0000 000000
2014-08-27 08:57:14,0.01,0.03,0.00,24.37,28.54,30.88,9.52,38.36,1016.64,2034.02,3453.91,3314.03,3603.19,499.64,494.07,2.34,0000 0000 0000 0000 000000
2014-08-27 09:02:15,0.01,0.03,0.00,24.37,28.55,30.88,9.53,38.43,1016.63,2034.00,3453.25,3314.00,3603.00,499.92,494.57,2.39,0000 0000 0000 0000 000000
2014-08-27 09:07:16,0.00,0.03,0.00,24.35,28.57,30.89,9.53,38.45,1016.62,2034.02,3453.04,3313.99,3602.99,499.78,494.26,2.43,0000 0000 0000 0000 000000
2014-08-27 09:12:17,0.00,0.03,0.00,24.36,28.57,30.91,9.54,38.19,1016.65,2034.00,3453.00,3313.96,3602.93,499.81,494.30,2.47,0000 0000 0000 0000 000000
2014-08-27 09:17:18,0.01,0.03,0.00,24.38,28.59,30.92,9.48,38.20,1016.69,2034.00,3453.00,3313.89,3602.61,499.89,494.33,2.51,0000 0000 0000 0000 000000
2014-08-27 09:22:19,0.02,0.03,0.00,24.39,28.60,30.93,9.47,38.45,1016.63,2034.00,3452.97,3313.48,3602.07,499.78,494.22,2.55,0000 0000 0000 0000 000000
2014-08-27 09:27:20,0.01,0.03,0.00,24.39,28.60,30.94,9.49,38.36,1016.62,2034.00,3452.81,3313.17,3602.01,499.83,494.29,2.60,0000 0000 0000 0000 000000
2014-08-27 09:32:21,0.01,0.03,0.00,24.38,28.62,30.95,9.50,38.21,1016.62,2034.00,3452.39,3313.02,3602.00,500.36,494.87,2.64,0000 0000 0000 0000 000000
2014-08-27 09:37:22,0.00,0.03,0.00,24.36,28.62,30.95,9.41,38.13,1016.63,2034.00,3452.07,3313.01,3601.99,499.62,493.96,2.68,0000 0000 0000 0000 000000
2014-08-27 09:42:23,0.00,0.03,0.00,24.37,28.63,30.96,9.50,38.28,1016.62,2034.00,3452.01,3313.00,3601.93,499.87,494.29,2.72,0000 0000 0000 0000 000000
2014-08-27 09:47:24,0.00,0.03,0.00,24.38,28.65,30.97,9.50,38.29,1016.62,2033.98,3452.00,3313.00,3601.57,500.19,494.51,2.76,0000 0000 0000 0000 000000
2014-08-27 09:52:26,0.00,0.03,0.00,24.38,28.65,30.98,9.51,38.29,1016.62,2033.98,3452.00,3312.98,3601.17,499.90,494.23,2.80,0000 0000 0000 0000 000000
2014-08-27 09:57:26,0.01,0.03,0.00,24.39,28.65,30.99,9.44,38.23,1016.62,2033.98,3451.95,3312.83,3601.01,499.51,493.76,2.85,0000 0000 0000 0000 000000
2014-08-27 10:02:27,0.01,0.03,0.00,24.37,28.67,30.99,9.50,38.25,1016.59,2033.94,3451.81,3312.52,3601.00,499.71,494.21,2.89,0000 0000 0000 0000 000000
2014-08-27 10:07:28,0.01,0.03,0.00,24.37,28.67,30.99,9.48,38.26,1016.46,2033.94,3451.59,3312.31,3601.00,499.48,493.83,2.93,0000 0000 0000 0000 000000
2014-08-27 10:12:29,0.01,0.03,0.00,24.37,28.67,31.01,9.51,38.09,1016.41,2033.93,3451.23,3312.06,3600.99,500.04,494.41,2.97,0000 0000 0000 0000 000000
2014-08-27 10:17:31,0.00,0.03,0.00,24.37,28.67,31.00,9.51,38.19,1016.42,2033.93,3451.11,3312.05,3600.96,500.07,494.39,3.01,0000 0000 0000 0000 000000
2014-08-27 10:22:32,0.00,0.03,0.00,24.36,28.69,31.01,9.51,38.15,1016.33,2033.92,3451.01,3312.01,3600.90,500.05,494.10,3.06,0000 0000 0000 0000 000000
2014-08-27 10:27:33,-0.01,0.03,0.00,24.36,28.70,31.02,9.51,38.03,1016.40,2033.80,3451.00,3312.00,3600.47,499.83,494.03,3.10,0000 0000 0000 0000 000000
2014-08-27 10:32:34,-0.00,0.03,0.00,24.38,28.70,31.02,9.50,38.21,1016.52,2033.77,3451.00,3312.00,3600.12,499.73,494.07,3.14,0000 0000 0000 0000 000000
2014-08-27 10:37:35,-0.01,0.03,0.00,24.36,28.70,31.03,9.57,38.38,1016.47,2033.61,3450.98,3312.00,3600.02,500.50,494.84,3.18,0000 0000 0000 0000 000000
2014-08-27 10:42:35,0.01,0.03,0.00,24.36,28.70,31.02,9.49,38.44,1016.50,2033.66,3450.73,3311.99,3600.00,499.54,493.96,3.22,0000 0000 0000 0000 000000
2014-08-27 10:47:36,0.02,0.03,0.00,24.37,28.70,31.03,9.51,38.25,1016.50,2033.83,3450.69,3311.99,3600.00,499.87,494.07,3.26,0000 0000 0000 0000 000000
2014-08-27 10:52:38,-0.00,0.03,0.00,24.37,28.70,31.03,9.49,38.20,1016.21,2033.87,3450.38,3311.97,3599.99,499.38,493.65,3.31,0000 0000 0000 0000 000000
2014-08-27 10:57:38,0.01,0.03,0.00,24.37,28.71,31.04,9.56,38.31,1016.36,2033.85,3450.09,3311.89,3599.98,500.25,494.59,3.35,0000 0000 0000 0000 000000
2014-08-27 11:02:40,0.02,0.04,0.00,24.36,28.72,31.04,9.55,38.35,1016.39,2033.87,3450.01,3311.50,3599.79,499.96,494.25,3.39,0000 0000 0000 0000 000000
2014-08-27 11:07:41,0.00,0.04,0.00,24.34,28.72,31.03,9.48,38.13,1016.23,2033.82,3450.00,3311.26,3599.33,499.95,494.30,3.43,0000 0000 0000 0000 000000
2014-08-27 11:12:42,-0.02,0.04,0.00,24.36,28.72,31.04,9.50,38.27,1016.38,2033.58,3449.99,3311.01,3599.02,499.94,494.30,3.47,0000 0000 0000 0000 000000
2014-08-27 11:17:43,-0.00,0.04,0.00,24.35,28.72,31.06,9.49,38.35,1016.55,2033.54,3449.96,3311.00,3599.00,499.86,494.28,3.52,0000 0000 0000 0000 000000
2014-08-27 11:22:44,0.02,0.04,0.00,24.35,28.72,31.04,9.54,38.17,1016.53,2033.54,3449.76,3311.00,3598.99,499.87,494.25,3.56,0000 0000 0000 0000 000000
2014-08-27 11:27:46,0.01,0.04,0.00,24.32,28.72,31.04,9.50,38.23,1016.55,2033.57,3449.45,3311.00,3598.97,499.85,494.31,3.60,0000 0000 0000 0000 000000
2014-08-27 11:32:47,-0.00,0.04,0.00,24.33,28.72,31.04,9.41,38.38,1016.60,2033.56,3449.11,3310.98,3598.84,499.56,494.11,3.64,0000 0000 0000 0000 000000
2014-08-27 11:37:48,0.01,0.04,0.00,24.35,28.72,31.04,9.56,38.24,1016.55,2033.49,3449.03,3310.93,3598.49,500.27,494.58,3.68,0000 0000 0000 0000 000000
2014-08-27 11:42:49,-0.00,0.04,0.00,24.34,28.72,31.04,9.52,38.37,1016.41,2033.41,3449.00,3310.87,3598.26,499.86,494.22,3.72,0000 0000 0000 0000 000000
2014-08-27 11:47:50,0.01,0.04,0.00,24.34,28.72,31.04,9.49,38.55,1016.35,2033.37,3449.00,3310.67,3598.04,500.13,494.42,3.77,0000 0000 0000 0000 000000
2014-08-27 11:52:51,0.01,0.04,0.00,24.31,28.73,31.04,9.48,38.43,1016.19,2033.39,3449.00,3310.32,3598.00,500.01,494.33,3.81,0000 0000 0000 0000 000000
2014-08-27 11:57:52,0.01,0.04,0.00,24.32,28.73,31.04,9.55,38.38,1016.15,2033.50,3448.99,3310.21,3598.00,500.64,494.94,3.85,0000 0000 0000 0000 000000
2014-08-27 12:02:53,-0.02,0.04,0.00,24.32,28.73,31.05,9.47,38.31,1016.15,2033.44,3448.97,3310.10,3598.00,499.28,493.49,3.89,0000 0000 0000 0000 000000
2014-08-27 12:07:54,-0.01,0.04,0.00,24.34,28.74,31.04,9.54,38.42,1016.13,2033.23,3448.71,3310.02,3597.97,500.15,494.35,3.93,0000 0000 0000 0000 000000
2014-08-27 12:12:55,0.03,0.04,0.00,24.34,28.74,31.06,9.58,38.34,1016.13,2033.37,3448.73,3310.02,3597.98,500.30,494.38,3.98,0000 0000 0000 0000 000000
2014-08-27 12:17:57,-0.00,0.04,0.00,24.33,28.74,31.05,9.49,38.42,1016.13,2033.35,3448.33,3310.02,3597.90,499.90,494.21,4.02,0000 0000 0000 0000 000000
2014-08-27 12:22:58,0.02,0.04,0.00,24.33,28.74,31.05,9.59,38.39,1016.12,2033.42,3448.05,3310.01,3597.66,500.20,494.48,4.06,0000 0000 0000 0000 000000
2014-08-27 12:27:59,0.01,0.04,0.00,24.32,28.75,31.05,9.54,38.23,1016.03,2033.46,3448.02,3310.00,3597.26,499.93,494.22,4.10,0000 0000 0000 0000 000000
2014-08-27 12:33:00,0.03,0.04,0.00,24.32,28.75,31.06,9.51,38.37,1015.99,2033.57,3448.01,3310.00,3597.09,500.11,494.15,4.14,0000 0000 0000 0000 000000
2014-08-27 12:38:01,0.01,0.04,0.00,24.31,28.75,31.06,9.51,38.44,1015.70,2033.80,3448.00,3310.00,3597.05,500.22,494.17,4.18,0000 0000 0000 0000 000000
2014-08-27 12:43:03,-0.01,0.04,0.00,24.32,28.75,31.04,9.54,38.44,1015.67,2033.64,3448.00,3309.99,3597.00,500.33,494.39,4.23,0000 0000 0000 0000 000000
2014-08-27 12:48:04,0.01,0.04,0.00,24.31,28.75,31.05,9.54,38.39,1015.66,2033.64,3447.96,3309.98,3597.00,500.28,494.26,4.27,0000 0000 0000 0000 000000
2014-08-27 12:53:05,-0.01,0.04,0.00,24.31,28.75,31.06,9.52,38.47,1015.64,2033.55,3447.64,3309.92,3596.95,500.09,494.22,4.31,0000 0000 0000 0000 000000
2014-08-27 12:58:06,0.04,0.04,0.00,24.31,28.75,31.04,9.48,38.33,1015.64,2033.64,3447.19,3309.76,3596.61,499.79,493.99,4.35,0000 0000 0000 0000 000000
2014-08-27 13:03:08,0.00,0.04,0.00,24.31,28.75,31.05,9.55,38.63,1015.63,2033.67,3447.07,3309.61,3596.31,500.08,494.24,4.39,0000 0000 0000 0000 000000
2014-08-27 13:08:09,0.01,0.04,0.00,24.33,28.75,31.06,9.52,38.35,1015.60,2033.56,3447.00,3309.17,3596.01,499.77,493.87,4.44,0000 0000 0000 0000 000000
2014-08-27 13:13:10,-0.00,0.04,0.00,24.31,28.75,31.05,9.49,38.57,1015.46,2033.49,3447.00,3309.07,3596.00,500.19,493.95,4.48,0000 0000 0000 0000 000000
2014-08-27 13:18:11,0.01,0.04,0.00,24.30,28.75,31.05,9.53,38.40,1015.37,2033.60,3447.00,3309.05,3596.00,500.14,494.04,4.52,0000 0000 0000 0000 000000
2014-08-27 13:23:12,0.03,0.04,0.00,24.30,28.75,31.04,9.53,38.52,1015.26,2033.82,3446.99,3309.04,3596.00,499.81,493.61,4.56,0000 0000 0000 0000 000000
2014-08-27 13:28:13,0.01,0.04,0.00,24.32,28.75,31.05,9.51,38.89,1015.21,2033.91,3446.98,3309.03,3596.00,499.79,493.60,4.60,0000 0000 0000 0000 000000
2014-08-27 13:33:14,0.00,0.04,0.00,24.31,28.75,31.04,9.55,38.68,1015.20,2033.95,3446.96,3309.03,3596.00,500.14,493.94,4.64,0000 0000 0000 0000 000000
2014-08-27 13:38:16,0.01,0.04,0.00,24.29,28.75,31.05,9.52,38.59,1015.19,2033.96,3446.69,3309.01,3595.97,500.08,493.84,4.69,0000 0000 0000 0000 000000
2014-08-27 13:43:16,0.01,0.05,0.00,24.31,28.75,31.04,9.48,38.59,1015.18,2033.90,3446.05,3309.00,3595.43,499.67,493.34,4.73,0000 0000 0000 0000 000000
2014-08-27 13:48:17,0.01,0.05,0.00,24.32,28.75,31.06,9.56,38.75,1015.16,2033.93,3446.00,3309.00,3595.14,500.08,493.79,4.77,0000 0000 0000 0000 000000
2014-08-27 13:53:18,-0.00,0.05,0.00,24.32,28.75,31.05,9.47,38.79,1015.15,2033.91,3446.00,3308.98,3595.01,499.88,493.70,4.81,0000 0000 0000 0000 000000
2014-08-27 13:58:19,0.00,0.05,0.00,24.31,28.75,31.06,9.45,38.44,1015.16,2033.87,3445.92,3308.93,3594.99,499.72,493.46,4.85,0000 0000 0000 0000 000000
2014-08-27 14:03:20,0.01,0.05,0.00,24.29,28.75,31.06,9.49,38.74,1015.16,2033.74,3445.29,3308.50,3594.88,500.00,493.87,4.90,0000 0000 0000 0000 000000
2014-08-27 14:08:21,0.03,0.05,0.00,24.28,28.75,31.05,9.51,38.76,1015.16,2033.89,3445.05,3308.33,3594.60,499.84,493.77,4.94,0000 0000 0000 0000 000000
2014-08-27 14:13:22,0.01,0.05,0.00,24.29,28.75,31.05,9.51,38.73,1015.15,2033.89,3445.00,3308.11,3594.11,500.12,494.02,4.98,0000 0000 0000 0000 000000
2014-08-27 14:18:24,0.01,0.05,0.00,24.29,28.75,31.03,9.47,38.58,1015.15,2033.92,3444.98,3308.02,3594.01,500.26,494.06,5.02,0000 0000 0000 0000 000000
2014-08-27 14:23:24,0.00,0.05,0.00,24.30,28.75,31.03,9.54,38.50,1015.15,2033.92,3444.91,3308.00,3593.98,500.09,493.75,5.06,0000 0000 0000 0000 000000
2014-08-27 14:28:26,0.01,0.05,0.00,24.31,28.75,31.04,9.54,38.87,1015.13,2033.95,3444.53,3308.00,3593.80,500.01,493.73,5.10,0000 0000 0000 0000 000000
2014-08-27 14:33:27,0.01,0.05,0.00,24.30,28.75,31.05,9.47,38.52,1015.01,2033.93,3444.06,3308.00,3593.24,500.13,493.88,5.15,0000 0000 0000 0000 000000
2014-08-27 14:38:28,-0.00,0.05,0.00,24.30,28.75,31.04,9.44,38.63,1014.81,2033.94,3444.01,3308.00,3593.05,499.37,493.04,5.19,0000 0000 0000 0000 000000
2014-08-27 14:43:29,0.00,0.05,0.00,24.30,28.75,31.04,9.53,38.42,1014.70,2033.91,3444.00,3307.96,3593.00,499.87,493.48,5.23,0000 0000 0000 0000 000000
2014-08-27 14:48:30,0.01,0.05,0.00,24.31,28.75,31.04,9.50,38.71,1014.68,2033.95,3444.00,3307.87,3592.99,500.04,493.58,5.27,0000 0000 0000 0000 000000
2014-08-27 14:53:31,0.01,0.05,0.00,24.30,28.75,31.04,9.49,38.73,1014.66,2033.97,3443.87,3307.67,3592.92,500.04,493.71,5.31,0000 0000 0000 0000 000000
2014-08-27 14:58:32,0.04,0.05,0.00,24.30,28.75,31.03,9.50,39.03,1014.66,2033.94,3443.26,3307.19,3592.30,500.16,493.63,5.36,0000 0000 0000 0000 000000
2014-08-27 15:03:33,0.01,0.05,0.00,24.30,28.75,31.03,9.52,39.05,1014.66,2033.93,3443.00,3307.03,3592.01,499.90,493.48,5.40,0000 0000 0000 0000 000000
2014-08-27 15:08:34,-0.00,0.05,0.00,24.29,28.75,31.04,9.41,38.92,1014.66,2033.93,3443.00,3307.00,3592.00,499.78,493.39,5.44,0000 0000 0000 0000 000000
2014-08-27 15:13:36,0.00,0.05,0.00,24.30,28.75,31.03,9.49,38.88,1014.66,2033.92,3442.95,3307.00,3591.92,499.62,493.13,5.48,0000 0000 0000 0000 000000